Location: Melbourne
(37.8666°S, 145.1333°E)
Time: 12:03:18
(UTC+10:00)

Daily predictions for brighter satellites

Satellite Brightness Start Highest point End
(mag) Time Altitude Azimuth Time Altitude Azimuth Time Altitude Azimuth
Cosmos 1709 Rocket 4.4 17:46:14 10° S 17:52:04 41° ESE 17:57:47 10° NNE
IRS-1A Rocket 4.3 17:48:03 10° SSE 17:53:48 69° ENE 17:59:21 10° N
IDEFIX/ARIANE 42P 4.0 17:51:54 10° SE 17:55:28 18° E 17:58:59 10° NE
Meteor 1-28 Rocket 3.7 17:52:33 10° NE 17:56:10 39° ESE 17:59:48 10° S
Delta 2 Rocket 4.3 17:51:00 10° WNW 17:56:24 60° N 18:01:14 10° E
SMAP 4.1 17:53:03 10° SE 17:57:03 27° E 18:01:00 10° NNE
Tiangong 1 2.0 17:54:52 10° NW 17:57:48 36° NNE 18:00:45 10° E
Cosmos 1271 Rocket 3.4 17:55:06 10° NNE 17:58:43 35° E 18:02:21 10° SSE
COSMOS 2428 4.0 17:53:18 10° NW 17:58:45 43° WSW 18:04:16 10° S
ADEOS II 4.5 17:56:32 10° SSW 18:00:31 22° WSW 18:04:29 10° WNW
DELTA 2 R/B (1) 3.7 17:56:03 10° W 18:01:41 75° S 18:07:18 10° E
Cosmos 1624 Rocket 4.2 17:57:40 10° SSW 18:02:57 82° WNW 18:08:11 10° NNE
Iridium 2 3.8 18:01:06 10° S 18:04:59 56° E 18:08:49 10° NNE
Hubble Space Telescope 3.1 18:04:46 10° NNW 18:07:17 16° NNE 18:09:48 10° NE
Cosmos 2242 Rocket 4.3 18:03:21 10° NNE 18:07:24 33° E 18:11:28 10° SSE
Cosmos 1726 2.2 18:05:11 10° N 18:08:50 57° E 18:12:32 10° SSE
APEX 3.7 18:07:55 10° S 18:10:23 22° ESE 18:12:39 10° ENE
Cosmos 1892 4.1 18:08:30 10° SSE 18:11:18 19° ESE 18:14:05 10° ENE
OTV 4 1.5 18:13:06 10° NW 18:15:52 34° NNE 18:18:13 13° E
Lacrosse 5 rocket 2.4 18:12:31 10° SW 18:17:07 55° NW 18:21:31 10° NNE
In-Cosmos 22 Rocket 4.3 18:12:50 10° S 18:18:35 68° E 18:24:22 10° NNE
Cosmos 2297 4.2 18:16:23 10° S 18:21:36 36° ESE 18:26:46 10° NE
Aureole 2 Rocket 3.9 18:22:26 10° NNE 18:26:00 26° ENE 18:28:26 15° SE
Cosmos 1340 Rocket 2.7 18:22:56 10° S 18:26:55 65° E 18:30:51 10° NNE
Cosmos 1452 Rocket 3.5 18:21:57 10° SSW 18:27:14 63° ESE 18:32:27 10° NNE
SL-16 R/B 2.4 18:27:17 10° N 18:32:46 52° ENE 18:38:19 10° SSE
Meteor 2-3 Rocket 3.7 18:27:16 10° S 18:33:08 79° E 18:38:51 10° NNE
CZ-2C R/B 2.5 18:29:05 10° SSE 18:33:32 45° E 18:37:57 10° N
OE (NEXTSAT) 4.4 18:36:53 10° WSW 18:40:31 71° SSE 18:42:37 23° ENE
YAOGAN 1 2.6 18:37:14 10° SSE 18:41:39 87° WSW 18:46:01 10° NNW
Cosmos 1869 Rocket 4.4 18:37:29 10° SSW 18:41:57 55° W 18:46:19 10° N
Lacrosse 5 2.7 18:38:06 10° SW 18:43:05 52° NW 18:48:02 10° NNE
SAR-Lupe-4 4.2 18:47:57 30° ESE 18:48:47 35° E 18:52:06 10° NNE
Cosmos 1356 Rocket 3.3 18:45:17 10° S 18:49:25 81° E 18:53:34 10° N
AQUARIUS 4.3 18:46:37 10° S 18:51:12 77° WSW 18:55:43 10° NNW
COSMOS 2455 2.9 18:45:44 10° NNW 18:51:46 83° WSW 18:57:52 10° SSE
SPOT 3 Rocket 4.3 18:48:52 10° S 18:54:03 55° WSW 18:59:08 10° NNW
Cosmos 1862 Rocket 3.7 18:50:01 10° NNE 18:54:22 51° E 18:58:48 10° SSE
Cosmos 2237 Rocket 3.4 18:53:45 10° NW 18:59:02 41° WSW 19:04:24 10° S
Lacrosse 4 Rocket 3.6 18:58:56 10° WNW 19:02:30 25° SW 19:06:03 10° S
Cosmos 1455 2.1 19:03:31 10° N 19:07:25 87° E 19:10:24 17° S
Coronas F rocket 1.7 19:05:26 10° SSW 19:08:11 61° W 19:10:50 10° N
CZ-4C R/B 3.5 19:04:27 10° N 19:11:10 32° ENE 19:12:17 31° E
Cosmos 1603 4.1 19:06:06 10° N 19:11:25 40° ENE 19:12:15 38° E
Cosmos 1869 3.1 19:08:17 10° N 19:12:15 75° E 19:13:51 35° SSE
Cosmos 2154 Rocket 4.4 19:06:23 10° S 19:12:18 38° ESE 19:18:07 10° NE
CZ-4 R/B 3.9 19:13:09 10° SSW 19:16:12 21° WSW 19:19:15 10° WNW
Cosmos 2184 Rocket 3.9 19:12:22 10° S 19:18:42 87° E 19:24:55 10° N
Timation 1 Rocket 4.3 19:15:34 10° SSW 19:21:35 64° ESE 19:24:52 28° NE
USA 238 DEB 3.8 19:14:51 10° NNW 19:21:40 55° ENE 19:24:07 38° ESE
USA 238 3.8 19:14:58 10° N 19:21:47 54° ENE 19:24:10 38° ESE
USA 32 4.1 19:17:43 10° N 19:22:58 79° W 19:28:18 10° S
Cosmos 2278 Rocket 4.1 19:22:47 10° SW 19:27:42 31° WNW 19:32:36 10° NNW
Cosmos 2333 Rocket 4.4 19:25:19 10° WNW 19:29:35 21° SW 19:33:53 10° S
USA 234 3.9 19:24:10 10° NNE 19:30:33 55° NW 19:37:00 10° SW
Sich 1 Rocket 3.9 19:26:51 10° S 19:38:11 - N 19:30:26 53° SSE
Genesis I 3.4 19:28:19 10° SW 19:32:12 70° WNW 19:32:12 70° WNW
OAO 2 Rocket 3.9 19:29:14 10° NW 19:34:09 45° NNE 19:34:22 45° NNE
Tiangong 1 3.0 19:31:13 10° W 19:33:07 30° WSW 19:33:07 30° WSW
IDEFIX/ARIANE 42P 3.4 19:30:10 10° S 19:35:20 52° WSW 19:40:26 10° NNW
Cosmos 2251 Rocket 4.0 19:31:43 10° N 19:35:37 45° NNE 19:35:37 45° NNE
Delta 2 Rocket 3.8 19:34:00 10° W 19:39:02 65° N 19:39:02 65° N
ATLAS 3B R/B 3.1 19:34:12 10° NW 19:40:25 54° SW 19:44:25 23° SSE
MSX 4.0 19:37:00 10° S 19:42:49 74° WSW 19:48:34 10° NNW
Nadezhda 1 Rocket 4.3 19:40:50 10° NNW 19:47:12 67° W 19:53:37 10° S
Hubble Space Telescope 2.8 19:44:39 10° NW 19:46:57 20° NNW 19:46:57 20° NNW
DELTA 2 R/B (1) 3.4 19:42:41 10° WSW 19:48:19 88° NNW 19:48:22 87° NNE
OTV 4 3.6 19:49:05 10° W 19:49:46 16° W 19:49:46 16° W
Cosmos 1484 Rocket 4.1 19:55:58 40° W 19:55:58 40° W 19:59:29 10° NW
Cosmos 1607 3.8 19:55:05 10° NNW 20:01:21 89° NNW 20:01:21 89° NNW
Centaur D AC-25 4.2 19:45:43 10° WNW 20:13:41 49° N 20:15:07 45° NNE
SL-16 R/B 4.3 20:12:48 10° WNW 20:17:12 22° SW 20:20:53 13° S
CZ-4C R/B 3.8 20:51:57 10° NW 20:57:33 44° W 20:57:33 44° W
